Evansville, IN

2:28 AM CDT on July 26, 2017 (GMT -0500)
Evansville Regional

Weather History for KEVV - September, 2011

Change the Weather History Date:

Wednesday, September 14, 2011

  Actual Average Record
Temperature  
Mean Temperature 68 °F 70 °F  
Max Temperature 79 °F 82 °F 100 °F (1939)
Min Temperature 57 °F 58 °F 37 °F (1964)
Degree Days  
Heating Degree Days 0 1  
Month to date heating degree days 7 4  
Since 1 July heating degree days 7 5  
Cooling Degree Days 3 6  
Month to date cooling degree days 99 108  
Year to date cooling degree days 1604 1307  
Growing Degree Days 18 (Base 50)    
Moisture  
Dew Point 59 °F    
Average Humidity 77    
Maximum Humidity 93    
Minimum Humidity 60    
Precipitation  
Precipitation 0.47 in 0.11 in 2.08 in (1978)
Month to date precipitation 1.07 1.42  
Year to date precipitation 46.05 32.34  
Snow  
Snow 0.00 in 0.00 in 0.00 in ()
Month to date snowfall 0.0 0.0  
Since 1 July snowfall 0.0 0.0  
Since 1 September snowfall 0.0 0.0  
Snow Depth 0.00 in    
Sea Level Pressure  
Sea Level Pressure 29.97 in    
Wind  
Wind Speed 7 mph (NNE)    
Max Wind Speed 22 mph    
Max Gust Speed 29 mph    
Visibility 6 miles    
Events Rain , Thunderstorm    
T = Trace of Precipitation, MM = Missing Value Source: NWS Daily Summary

Daily Weather History Graph

Daily Weather History Graph

Search for Another Location

Airport or City:

Trip Planner

Search our weather history database for the weather conditions in past years. The results will help you decide how hot, cold, wet, or windy it might be!

Date:

Astronomy

Sep. 14, 2011 Rise Set
Actual Time 6:30 AM CDT 7:00 PM CDT
Civil Twilight 6:04 AM CDT 7:26 PM CDT
Nautical Twilight 5:33 AM CDT 7:57 PM CDT
Astronomical Twilight 5:01 AM CDT 8:29 PM CDT
Moon 7:48 PM CDT (9/14) 8:38 AM CDT (9/14)
Length of Visible Light 13h 22m
Length of Day
12h 29m
Waning Gibbous, 95% of the Moon is Illuminated
Sep 14
Waning Gibbous
Sep 20
Last Quarter
Sep 27
New
Oct 3
First Quarter
Oct 11
Full

Hourly Weather History & Observations

Time (CDT) Temp. Dew Point Humidity Pressure Visibility Wind Dir Wind Speed Gust Speed Precip Events Conditions
12:54 AM 71.6 °F 60.8 °F 69% 29.93 in 10.0 mi Calm Calm - N/A   Clear
1:54 AM 66.9 °F 60.1 °F 79% 29.93 in 10.0 mi Calm Calm - N/A   Clear
2:54 AM 66.0 °F 61.0 °F 84% 29.93 in 10.0 mi Calm Calm - N/A   Clear
3:54 AM 66.0 °F 61.0 °F 84% 29.94 in 10.0 mi Calm Calm - N/A   Clear
4:54 AM 66.9 °F 61.0 °F 81% 29.94 in 10.0 mi Calm Calm - N/A   Clear
5:54 AM 66.9 °F 60.1 °F 79% 29.98 in 10.0 mi NNE 3.5 mph - N/A   Clear
6:54 AM 66.0 °F 60.1 °F 81% 29.99 in 10.0 mi NNE 4.6 mph - N/A   Clear
7:54 AM 66.9 °F 61.0 °F 81% 29.99 in 7.0 mi NE 3.5 mph - N/A   Clear
8:54 AM 69.1 °F 62.1 °F 78% 29.98 in 6.0 mi NE 4.6 mph - N/A   Haze
9:54 AM 70.0 °F 62.1 °F 76% 29.98 in 10.0 mi NE 3.5 mph - N/A   Clear
10:54 AM 73.0 °F 63.0 °F 71% 29.98 in 6.0 mi ENE 4.6 mph - N/A   Haze
11:54 AM 77.0 °F 63.0 °F 62% 29.96 in 6.0 mi East 4.6 mph - N/A   Haze
12:54 PM 78.1 °F 64.0 °F 62% 29.95 in 6.0 mi North 5.8 mph - N/A   Haze
1:54 PM 77.0 °F 63.0 °F 62% 29.97 in 6.0 mi NNW 5.8 mph - N/A   Haze
2:54 PM 75.9 °F 63.0 °F 64% 29.95 in 6.0 mi North 4.6 mph - 0.00 in   Haze
3:54 PM 73.4 °F 60.8 °F 65% 29.93 in 5.0 mi North 10.4 mph - N/A   Haze
4:54 PM 68.0 °F 57.9 °F 70% 29.93 in 3.0 mi North 16.1 mph 21.9 mph 0.00 in   Haze
5:54 PM 64.0 °F 54.0 °F 70% 29.94 in 3.0 mi North 15.0 mph 25.3 mph 0.00 in   Haze
6:54 PM 61.0 °F 55.0 °F 81% 29.96 in 3.0 mi NNE 17.3 mph 27.6 mph 0.02 in Rain Light Rain
7:13 PM 60.8 °F 55.4 °F 82% 29.98 in 7.0 mi NNE 12.7 mph 26.5 mph 0.02 in Rain , Thunderstorm Rain
7:28 PM 60.8 °F 55.4 °F 82% 29.97 in 5.0 mi NNE 16.1 mph 23.0 mph 0.05 in Rain Rain
7:54 PM 60.1 °F 55.9 °F 86% 29.98 in 4.0 mi NNE 13.8 mph 21.9 mph 0.16 in Rain Heavy Rain
8:14 PM 59.0 °F 55.4 °F 88% 29.98 in 4.0 mi NE 15.0 mph 25.3 mph 0.09 in Rain , Thunderstorm Heavy Thunderstorms and Rain
8:29 PM 59.0 °F 55.4 °F 88% 29.97 in 5.0 mi NE 18.4 mph 25.3 mph 0.14 in Rain Rain
8:54 PM 59.0 °F 55.4 °F 88% 29.96 in 4.0 mi NE 13.8 mph - N/A Rain Rain
9:54 PM 59.0 °F 55.9 °F 90% 29.98 in 7.0 mi NNE 10.4 mph - 0.02 in Rain Rain
10:11 PM 59.0 °F 55.4 °F 88% 30.00 in 8.0 mi NNE 8.1 mph - 0.00 in Rain Light Rain
10:54 PM 60.1 °F 55.9 °F 86% 30.01 in 5.0 mi North 13.8 mph - 0.01 in Rain Rain
11:33 PM 59.0 °F 55.4 °F 88% 30.03 in 4.0 mi North 10.4 mph - 0.05 in Rain Light Rain
11:54 PM 57.9 °F 55.0 °F 90% 30.03 in 6.0 mi North 10.4 mph 21.9 mph 0.06 in Rain Light Rain